sat.trackr.live / text

‹ back to catalog

STARLINK-32519

NORAD 62317 · 2024-239S

PAYLOAD ACTIVE UNKNOWN

§ Identity

Operator
Country
US
Launch date
2024-12-13
Launch site
AFWTR
Launch vehicle
Mass (kg)
RCS (m²)

Purposes: comms

External: N2YO · Heavens-Above · Gunter

§ Orbital elements

Epoch: 2026-09-21T05:42:43.941312Z

Period
94.01 min
Inclination
53.1623°
Eccentricity
0.0001663
Mean motion
15.31709451 rev/d
Perigee alt
469.6 km
Apogee alt
471.9 km
Semi-major
6,848.8 km
B*
3.2278e-4
RAAN
351.3852°
Arg perigee
67.8674°
Mean anomaly
292.2504°
Rev number
9,952

§ Raw data

STARLINK-325191 62317U 24239S   26264.23800858  .00009667  00000+0  32278-3 0  99952 62317  53.1623 351.3852 0001663  67.8674 292.2504 15.31709451 99527

JSON: /api/v1/satellites/62317 · /tle

For live sub-satellite position, see the globe view (requires WebGL).

§ Visibility from observer

Set your observer location to see the next 7 days of passes ≥ 10°. The values pass through the URL so the page stays shareable.

No JS? Fill the form by hand. The geolocation button needs JavaScript.